Date,TemperatureHighF,TemperatureAvgF,TemperatureLowF,DewpointHighF,DewpointAvgF,DewpointLowF,HumidityHigh,HumidityAvg,HumidityLow,PressureMaxIn,PressureMinIn,WindSpeedMaxMPH,WindSpeedAvgMPH,GustSpeedMaxMPH,PrecipitationSumIn
2013-2-1,5,0,-8,-5,-15,-22,64,48,36,30.32,30.12,0,0,0,0.00
2013-2-2,16,7,0,-3,-6,-13,64,54,39,30.13,30.01,0,0,0,0.00
2013-2-3,21,13,5,5,0,-5,68,57,42,30.05,29.94,11,2,16,0.00
2013-2-4,22,13,6,6,0,-8,68,56,35,30.01,29.94,8,3,9,0.00
2013-2-5,29,19,4,19,9,-6,76,65,57,30.12,29.78,16,5,17,0.00
2013-2-6,33,18,-3,26,8,-13,81,63,49,30.22,30.07,11,3,12,0.00
2013-2-7,35,31,21,31,26,17,85,83,75,30.12,29.95,9,2,11,0.24
2013-2-8,31,20,10,16,10,0,81,63,46,30.39,30.12,0,0,0,0.11
2013-2-9,29,22,10,20,13,0,82,71,63,30.39,30.08,14,6,17,0.00
2013-2-10,42,32,18,41,29,11,96,85,73,30.08,29.42,23,8,30,0.38
2013-2-11,37,30,24,30,21,14,78,69,61,30.01,29.42,28,15,35,0.04
2013-2-12,31,24,20,17,13,10,77,63,52,30.10,29.88,13,7,15,0.00
2013-2-13,39,28,14,26,19,8,78,69,53,29.88,29.69,14,3,14,0.00
2013-2-14,45,34,28,32,24,14,83,67,50,30.21,29.59,17,6,20,0.05
2013-2-15,47,23,10,32,4,-6,73,45,31,30.19,30.10,13,5,14,3.74
2013-2-16,20,11,2,-1,-8,-12,57,43,24,30.15,30.09,11,4,12,0.00
2013-2-17,26,14,-2,12,-2,-14,62,49,31,30.15,29.86,13,5,17,0.00
2013-2-18,46,34,26,32,23,13,85,65,55,29.86,29.45,17,7,18,0.04
2013-2-19,26,14,7,20,1,-11,76,58,42,30.14,29.54,19,7,24,0.01
2013-2-20,25,14,4,5,-3,-11,54,46,38,30.32,30.14,12,5,12,0.00
2013-2-21,25,18,9,20,8,-4,82,65,54,30.38,30.00,17,6,23,0.00
2013-2-22,32,26,23,23,19,16,81,75,64,30.00,28.78,14,6,18,0.07
2013-2-23,32,25,19,17,14,7,71,62,51,28.93,28.82,14,7,15,0.02
2013-2-24,40,25,10,20,12,1,71,58,42,29.11,28.93,5,2,7,0.01
2013-2-25,42,28,13,25,16,5,71,62,50,29.14,29.01,9,2,9,0.00
2013-2-26,36,30,27,26,22,17,87,71,56,29.01,28.66,20,8,20,0.00
2013-2-27,35,31,28,29,26,22,86,81,75,28.80,28.64,14,5,15,0.22
2013-2-28,37,31,23,27,21,13,85,68,52,29.12,28.80,12,3,17,0.09